{"data":{"norad_id":59654,"intl_designator":"2024-084A","name":"STARLINK-31589","alt_names":[],"object_type":"PAYLOAD","status":"ACTIVE","operator":null,"country":"US","launch_date":"2024-05-06","launch_site_code":"AFETR","launch_vehicle":null,"mission":null,"orbit_class":"UNKNOWN","rcs_meters":null,"size_class":null,"mass_kg":null,"dimensions":null,"purposes":["comms"],"wikipedia_slug":null,"has_3d_model":false,"image_url":null,"decayed_at":null,"tle_current":{"epoch":"2026-05-24T20:31:34.023360Z","epoch_age_seconds":87670,"freshness":"FRESH","line1":"1 59654U 24084A   26144.85525490  .00000015  00000+0  10057-4 0  9994","line2":"2 59654  43.0021 331.4910 0001382 266.4169  93.6525 15.27575174116046","mean_motion":15.27575174,"eccentricity":0.0001382,"inclination_deg":43.0021,"raan_deg":331.491,"arg_perigee_deg":266.4169,"mean_anomaly_deg":93.6525,"bstar":1.0057e-5,"rev_number":11604,"period_min":94.267046526379,"perigee_km":482.11532894227,"apogee_km":484.01176477342,"semimajor_km":6861.2005468578,"source":"CELESTRAK","updated_at":"2026-05-25T13:38:19.017232Z"}}}